Weather in Zenkovo

Russia / Khanty-Mansi Autonomous Okrug — Yugra     61°12′04″N   69°52′46″E
temp.,
°C
wind,
m/s
gust,
m/s
humid.,
%
clouds,
%
prec.,
mm/h
press.,
hPa
HPBL,
m
8 march, mon
mon823:00−20s1110051 0.0 100820
02:00−19ne129995 0.0 100620
05:00−17nne339798 0.1 100466
08:00−18nnw339795 0.1 100275
11:00−17nw469596 0.1 1002238
14:00−16wnw469176 0.0 1003344
17:00−17w239471 0.0 100431
20:00−21w449575 0.0 100559
9 march, tue
tue923:00−23wsw239854 0.0 100620
02:00−24ssw1110086 0.0 100720
05:00−22ese229893 0.0 100721
08:00−20e3598100 0.1 1006144
11:00−17e4695100 0.3 1005247
14:00−15ene5794100 0.2 1005329
17:00−15ne5895100 0.4 1005314
20:00−18nne4897100 0.3 1005238
10 march, wed
wed1023:00−21n469798 0.4 1006135
02:00−25nnw349791 0.0 100966
05:00−27nnw239888 0.1 101122
08:00−29nnw229882 0.0 101219
11:00−25nnw229370 0.0 1012186
14:00−23nnw119186 0.0 1012216
17:00−25nne119572 0.0 101120
20:00−27ne23950 0.0 101119
11 march, thu
thu1123:00−29ene349921 0.0 101036
02:00−31ne349768 0.0 100947
05:00−33ne349767 0.0 100947
08:00−32nne369687 0.0 1010137
11:00−28ne469393 0.0 1010270
14:00−25nne479297 0.0 1010360
17:00−26ne489397 0.0 1010326
20:00−28nne479495 0.0 1011222
12 march, fri
fri1223:00−30nne479595 0.0 1012155
02:00−31nne469584 0.0 1012156
05:00−33nne349663 0.0 101251
08:00−33n33952 0.0 101451
11:00−28nnw22911 0.0 1014188
14:00−24wnw23879 0.0 1015242
17:00−25sw23924 0.0 101525
20:00−28sw34900 0.0 101631